[[{"header":{"parameterUnit":"m.s-1","parameterCategory":2,"la1":30.2991,"la2":30.254,"lo1":-89.0895,"lo2":-89.0444,"dy":0.0017,"dx":0.0017,"nx":28,"ny":28,"refTime":"2025-08-09T21:00:00:Z","depth":"0","parameterNumber":2,"parameterNumberName":"U-component_of_CURRENTS"},"data":[0,0,0,0,0,0,0,0,0,0,0,0,0,0,0,0,0,0,0,0,0,0,0,0,0,0,0,0,0,0,0,0,0,0,0,0,0,0,0,0,0,0,0,0,0,0,0,0,0,0,0,0,0,0,0,0,0,0,-0.2319,-0.232,0,-0.234,-0.234,-0.234,-0.231,-0.2309,-0.2308,-0.2307,-0.2267,-0.2266,-0.2266,0,0,0,0,0,0,0,0,0,0,0,0,0,-0.2249,-0.225,-0.2319,-0.232,-0.232,-0.234,-0.234,-0.234,-0.231,-0.2309,-0.2308,-0.2307,-0.2267,-0.2266,-0.2266,0,0,0,0,0,0,0,0,0,0,0,0,0,-0.2273,-0.225,-0.2319,-0.2309,-0.2309,-0.234,-0.234,-0.234,-0.231,-0.2309,-0.2307,-0.2306,-0.2267,-0.2267,-0.2266,-0.2289,0,0,-0.2265,-0.2265,0,0,0,0,0,0,0,0,-0.2272,-0.2275,-0.231,-0.231,-0.2309,-0.2323,-0.2301,-0.2321,-0.231,-0.2307,-0.2307,-0.2306,-0.2282,-0.2281,-0.2285,-0.2287,-0.2286,-0.2265,-0.2265,-0.2264,-0.2264,0,0,0,0,0,0,0,-0.227,-0.2274,-0.2325,-0.2311,-0.231,-0.2302,-0.2304,-0.2304,-0.2299,-0.2307,-0.2306,-0.2312,-0.2281,-0.2285,-0.2284,-0.2285,-0.2265,-0.2264,-0.2264,-0.2264,-0.2303,-0.2304,0,0,0,0,0,0,-0.2274,-0.2273,-0.2324,-0.2326,-0.229,-0.2305,-0.2307,-0.2318,-0.23,-0.2297,-0.2313,-0.2311,-0.2287,-0.2284,-0.2282,-0.2313,-0.2264,-0.2264,-0.2264,-0.2301,-0.2303,-0.2304,0,0,0,0,0,0,-0.2273,-0.2279,-0.2324,-0.2301,-0.2307,-0.2308,-0.232,-0.2319,-0.2318,-0.2306,-0.2301,-0.2313,-0.2286,-0.2283,-0.2286,-0.2311,-0.2264,-0.2263,-0.23,-0.2302,-0.2304,-0.2372,0,0,0,0,0,0,-0.2271,-0.2278,-0.2283,-0.2302,-0.2308,-0.2346,-0.2322,-0.2321,-0.2325,-0.2322,-0.2304,-0.2299,-0.2284,-0.2287,-0.2286,-0.2309,-0.2263,-0.2298,-0.2301,-0.2303,-0.2368,-0.2376,-0.2383,0,0,0,0,0,-0.2268,-0.2283,-0.2284,-0.229,-0.2317,-0.2347,-0.235,-0.2343,-0.2327,-0.2335,-0.2323,-0.2299,-0.2301,-0.2288,-0.2286,-0.231,-0.2297,-0.23,-0.2303,-0.2365,-0.2374,-0.2382,0,0,0,0,0,0,-0.2253,-0.2282,-0.2283,-0.2304,-0.2326,-0.2343,-0.2347,-0.2347,-0.2345,-0.2335,-0.2316,-0.2311,-0.2325,-0.231,-0.2295,-0.2329,-0.2296,-0.2298,-0.2344,-0.2352,-0.236,-0.2358,-0.2263,0,0,0,0,0,-0.2255,-0.2269,-0.23,-0.2314,-0.2326,-0.2337,-0.2345,-0.2348,-0.2353,-0.235,-0.234,-0.2332,-0.2339,-0.2337,-0.2336,-0.2355,-0.2338,-0.2369,-0.2377,-0.2383,-0.2381,-0.2392,-0.24,-0.2314,-0.2314,-0.2314,0,0,-0.2251,-0.2268,-0.2275,-0.2311,-0.2322,-0.2355,-0.2338,-0.2357,-0.2382,-0.2347,-0.2364,-0.2356,-0.2349,-0.2371,-0.2375,-0.2359,-0.2399,-0.2387,-0.2392,-0.2387,-0.2395,-0.2404,-0.2411,-0.2316,-0.2315,-0.2315,0,0,-0.2257,-0.2269,-0.2287,-0.2314,-0.2343,-0.2359,-0.2367,-0.2391,-0.2395,-0.242,-0.2403,-0.2412,-0.2414,-0.2422,-0.2424,-0.2472,-0.2438,-0.2469,-0.2505,-0.2516,-0.2523,-0.2529,-0.2519,-0.2523,-0.2473,-0.2473,-0.2473,0,-0.225,-0.2283,-0.2297,-0.2331,-0.2354,-0.2365,-0.2399,-0.2418,-0.2438,-0.245,-0.243,-0.2452,-0.2444,-0.248,-0.2494,-0.249,-0.2477,-0.2473,-0.2526,-0.2531,-0.2536,-0.2524,-0.2528,-0.2477,-0.2476,-0.2476,-0.2476,0,-0.2279,-0.2309,-0.2323,-0.237,-0.2399,-0.2428,-0.2466,-0.2488,-0.2492,-0.2509,-0.2537,-0.2532,-0.2541,-0.2548,-0.2533,-0.2571,-0.2544,-0.2534,-0.2503,-0.2549,-0.2533,-0.2536,-0.2482,-0.2481,-0.248,-0.2479,0,0,-0.2248,-0.2328,-0.2331,-0.2362,-0.2423,-0.2448,-0.25,-0.255,-0.2576,-0.2594,-0.2625,-0.2644,-0.2629,-0.2631,-0.2619,-0.2628,-0.2653,-0.2594,-0.2593,-0.2582,-0.2658,-0.2582,-0.2577,-0.2648,-0.2649,-0.265,-0.2633,0,-0.2263,-0.2329,-0.2369,-0.243,-0.2468,-0.251,-0.2557,-0.2602,-0.2627,-0.2659,-0.267,-0.2686,-0.2666,-0.2663,-0.2676,-0.2656,-0.2663,-0.2657,-0.2616,-0.2614,-0.254,-0.2579,-0.2463,-0.2432,-0.2636,-0.2636,-0.2636,0,-0.2272,-0.2319,-0.2382,-0.2465,-0.2484,-0.2522,-0.259,-0.2635,-0.2694,-0.2711,-0.2737,-0.2736,-0.2758,-0.2726,-0.2728,-0.2721,-0.2694,-0.2677,-0.2676,-0.258,-0.2543,-0.2419,-0.243,-0.2403,-0.264,-0.264,-0.264,0,-0.2232,-0.2323,-0.237,-0.24,-0.2497,-0.2527,-0.2572,-0.2641,-0.2673,-0.2732,-0.2747,-0.2782,-0.2776,-0.2773,-0.2735,-0.2732,-0.2721,-0.2715,-0.2624,-0.2618,-0.2497,-0.2478,-0.2472,-0.2716,-0.2716,-0.2716,-0.2717,0,-0.2228,-0.2263,-0.2352,-0.2378,-0.2423,-0.2502,-0.2548,-0.2601,-0.2669,-0.2699,-0.2753,-0.2768,-0.2783,-0.2777,-0.2753,-0.2689,-0.2736,-0.2631,-0.2613,-0.2516,-0.25,-0.2452,-0.2467,-0.2716,-0.2716,-0.2716,-0.2716,0,-0.2167,-0.2235,-0.2284,-0.2379,-0.2403,-0.2427,-0.2512,-0.2544,-0.2624,-0.2661,-0.2676,-0.2747,-0.274,-0.2742,-0.2727,-0.2688,-0.2598,-0.2617,-0.2491,-0.2457,-0.2341,-0.2362,-0.2322,-0.2258,-0.252,-0.2518,-0.2516,0,-0.2142,-0.2161,-0.2245,-0.2261,-0.2297,-0.235,-0.2382,-0.2491,-0.2527,-0.2636,-0.2641,-0.2673,-0.2664,-0.2628,-0.2576,-0.2522,-0.2513,-0.2382,-0.236,-0.2319,-0.2331,-0.2344,-0.2294,-0.2229,-0.2225,-0.2222,-0.2219,0,-0.2072,-0.2095,-0.213,-0.2163,-0.2195,-0.2237,-0.2296,-0.2325,-0.2447,-0.2485,-0.2531,-0.254,-0.2527,-0.2431,-0.2373,-0.2327,-0.2312,-0.2314,-0.231,-0.2134,-0.2109,-0.2042,-0.2253,-0.2191,-0.2194,-0.2196,-0.2198,-0.2199,-0.1989,-0.1986,-0.2022,-0.204,-0.2076,-0.2099,-0.2092,-0.2172,-0.2209,-0.225,-0.2349,-0.2332,-0.2296,-0.22,-0.2157,-0.2039,-0.2107,-0.1976,-0.2015,-0.2039,-0.195,-0.209,-0.1985,-0.1987,-0.1988,-0.1989,-0.199,0,-0.1876,-0.1885,-0.1897,-0.1916,-0.1898,-0.1962,-0.2005,-0.198,-0.1974,-0.2056,-0.2067,-0.2058,-0.1954,-0.1943,-0.1848,-0.1768,-0.1731,-0.1733,-0.1732,-0.1702,-0.1845,-0.1803,-0.1606,-0.1606,-0.1606,-0.1606,-0.1606,-0.1606,-0.1818,-0.1785,-0.1793,-0.1724,-0.1731,-0.1667,-0.166,-0.1646,-0.1674,-0.1669,-0.1707,-0.1778,-0.1782,-0.1844,-0.172,-0.1636,-0.1603,-0.1547,-0.1591,-0.1707,-0.1734,-0.1759,-0.1722,-0.1512,-0.1512,-0.1368,-0.1367,-0.1367]},{"header":{"parameterUnit":"m.s-1","parameterCategory":2,"la1":30.2991,"la2":30.254,"lo1":-89.0895,"lo2":-89.0444,"dy":0.0017,"dx":0.0017,"nx":28,"ny":28,"refTime":"2025-08-09T21:00:00:Z","depth":"0","parameterNumber":3,"parameterNumberName":"V-component_of_CURRENTS"},"data":[0,0,0,0,0,0,0,0,0,0,0,0,0,0,0,0,0,0,0,0,0,0,0,0,0,0,0,0,0,0,0,0,0,0,0,0,0,0,0,0,0,0,0,0,0,0,0,0,0,0,0,0,0,0,0,0,0,0,-0.0209,-0.0208,0,-0.0131,-0.013,-0.0129,-0.0074,-0.0074,-0.0074,-0.0073,0.003,0.0033,0.0035,0,0,0,0,0,0,0,0,0,0,0,0,0,-0.0268,-0.0268,-0.0209,-0.0208,-0.0207,-0.0132,-0.013,-0.0129,-0.0074,-0.0074,-0.0074,-0.0073,0.003,0.0032,0.0035,0,0,0,0,0,0,0,0,0,0,0,0,0,-0.0221,-0.0267,-0.0209,-0.0171,-0.0167,-0.0132,-0.013,-0.0129,-0.0074,-0.0074,-0.0073,-0.0073,0.0029,0.0032,0.0036,0.0048,0,0,0.0047,0.0048,0,0,0,0,0,0,0,0,-0.0224,-0.0219,-0.0178,-0.0174,-0.0169,-0.0113,-0.0113,-0.0069,-0.0075,-0.0109,-0.0073,-0.0073,-0.0016,-0.0009,0.0006,0.0053,0.0057,0.0047,0.0049,0.0051,0.0052,0,0,0,0,0,0,0,-0.0227,-0.0222,-0.0177,-0.0177,-0.0172,-0.0145,-0.0137,-0.0104,-0.0065,-0.0106,-0.0102,-0.0095,-0.0014,0.0002,0.0009,0.0059,0.0047,0.005,0.0053,0.0054,0.0132,0.0132,0,0,0,0,0,0,-0.0242,-0.0225,-0.018,-0.0175,-0.0197,-0.0144,-0.0136,-0.0131,-0.0066,-0.0056,-0.0095,-0.0093,-0.0004,0.0004,0.0012,0.0029,0.0051,0.0054,0.0057,0.0132,0.0132,0.0132,0,0,0,0,0,0,-0.0243,-0.0238,-0.0183,-0.0199,-0.019,-0.0144,-0.0138,-0.0129,-0.0114,-0.0059,-0.0048,-0.0089,-0.0004,0.0007,0.0041,0.0033,0.0056,0.0059,0.0132,0.0132,0.0132,0.0063,0,0,0,0,0,0,-0.0245,-0.0239,-0.0243,-0.02,-0.019,-0.0171,-0.0138,-0.0128,-0.0111,-0.0107,-0.005,-0.0039,-0.0002,0.0035,0.0044,0.0039,0.0062,0.0132,0.0132,0.0132,0.0065,0.0061,0.0056,0,0,0,0,0,-0.0248,-0.0258,-0.0243,-0.0238,-0.0195,-0.0171,-0.0164,-0.0128,-0.0112,-0.0111,-0.0069,-0.0041,0.004,0.0038,0.0049,0.0044,0.0132,0.0132,0.0132,0.0068,0.0062,0.0056,0,0,0,0,0,0,-0.0286,-0.0252,-0.0235,-0.0235,-0.0209,-0.0163,-0.016,-0.0135,-0.0101,-0.0096,-0.0042,-0.0029,-0.0003,0.0031,0.0027,0.0067,0.009,0.0092,0.0038,0.0032,0.0028,0.0013,0.0065,0,0,0,0,0,-0.0297,-0.0295,-0.0257,-0.0257,-0.0248,-0.0205,-0.0191,-0.0168,-0.0131,-0.0116,-0.0075,-0.0032,0.0004,0.0025,0.006,0.0083,0.0122,0.0088,0.0083,0.0079,0.0075,0.0127,0.0127,0.0131,0.0131,0.0131,0,0,-0.0311,-0.0293,-0.0292,-0.0265,-0.0242,-0.0239,-0.0195,-0.0182,-0.0175,-0.011,-0.0091,-0.0048,0.0006,0.0031,0.0045,0.0059,0.0099,0.0078,0.0074,0.0073,0.0127,0.0126,0.0126,0.0131,0.0131,0.0131,0,0,-0.0349,-0.0325,-0.034,-0.0324,-0.0297,-0.0268,-0.0268,-0.0226,-0.0203,-0.0179,-0.0131,-0.0091,-0.004,0.0001,0.0028,0.002,0.007,0.0029,-0.0003,0.0047,0.0047,0.0048,0.0097,0.0102,0.0029,0.0029,0.0029,0,-0.037,-0.038,-0.0341,-0.0352,-0.0345,-0.0287,-0.0302,-0.0271,-0.0223,-0.0203,-0.0184,-0.0097,-0.0053,-0.0012,-0.0015,0.0009,0.0045,0.0011,0.0041,0.0042,0.0044,0.0094,0.0101,0.0026,0.0026,0.0026,0.0027,0,-0.0417,-0.0425,-0.0433,-0.0426,-0.0412,-0.0414,-0.0369,-0.0348,-0.0312,-0.0274,-0.0226,-0.0159,-0.0104,-0.0086,-0.0052,-0.0019,0.0004,0.0025,0.0051,0.0039,0.0093,0.0101,0.0021,0.0022,0.0023,0.0024,0,0,-0.0463,-0.0468,-0.047,-0.0483,-0.0452,-0.0447,-0.0432,-0.0399,-0.0383,-0.0327,-0.0299,-0.0232,-0.0184,-0.015,-0.0096,-0.0052,-0.0008,-0.0016,-0.0011,0.0026,0.0103,0.0152,0.0166,0.0016,0.0017,0.0018,0.0135,0,-0.0513,-0.056,-0.0538,-0.0571,-0.0589,-0.0534,-0.0525,-0.0484,-0.043,-0.0386,-0.0303,-0.0258,-0.021,-0.0181,-0.0129,-0.0035,0.0011,-0.0042,0.0115,0.012,0.0159,0.0176,0.0205,0.0315,0.0144,0.0145,0.0146,0,-0.0566,-0.0591,-0.064,-0.0647,-0.0647,-0.065,-0.0614,-0.0597,-0.0515,-0.0471,-0.04,-0.0328,-0.0246,-0.0208,-0.0056,-0.0092,-0.0006,0.0065,0.0072,0.0147,0.0184,0.0301,0.0337,0.0468,0.016,0.0159,0.0158,0,-0.0625,-0.0657,-0.07,-0.0704,-0.0701,-0.0702,-0.0688,-0.0625,-0.0604,-0.0519,-0.0484,-0.0375,-0.0309,-0.0193,-0.0034,-0.0047,0.0138,0.0143,0.0268,0.0272,0.0344,0.0353,0.052,0.0241,0.024,0.024,0.024,0,-0.0688,-0.072,-0.0733,-0.0758,-0.0796,-0.0765,-0.0773,-0.0735,-0.0674,-0.0647,-0.0533,-0.0473,-0.0304,-0.017,-0.0042,0.0152,0.0139,0.0269,0.0309,0.0321,0.0326,0.0481,0.0523,0.0244,0.0244,0.0243,0.0242,0,-0.0747,-0.0758,-0.0808,-0.0824,-0.083,-0.0853,-0.0841,-0.0837,-0.0768,-0.0724,-0.07,-0.054,-0.0357,-0.0174,0.0035,0.015,0.0411,0.0388,0.0392,0.043,0.0651,0.0686,0.0891,0.0968,0.0537,0.0538,0.054,0,-0.0782,-0.0817,-0.0862,-0.0894,-0.0904,-0.0928,-0.0941,-0.0893,-0.0878,-0.0756,-0.0735,-0.0551,-0.0399,-0.006,0.0174,0.0422,0.0513,0.0581,0.056,0.068,0.0748,0.0773,0.0824,0.0631,0.0633,0.0635,0.0636,0,-0.0841,-0.0855,-0.0895,-0.0967,-0.0999,-0.1029,-0.1036,-0.1041,-0.0968,-0.0901,-0.077,-0.0636,-0.0292,0.0018,0.0343,0.049,0.0679,0.0625,0.0757,0.0845,0.0876,0.0964,0.0533,0.0653,0.0651,0.065,0.0649,0.0648,-0.087,-0.0915,-0.0968,-0.103,-0.1074,-0.1112,-0.1128,-0.1108,-0.107,-0.0947,-0.0807,-0.0567,-0.0125,0.035,0.052,0.0876,0.0834,0.0971,0.1007,0.1024,0.1093,0.0696,0.0853,0.0852,0.0852,0.0852,0.0851,0,-0.0901,-0.0954,-0.1025,-0.1095,-0.1149,-0.1155,-0.1175,-0.1158,-0.1105,-0.0946,-0.0781,-0.0281,0.0156,0.0554,0.1055,0.1243,0.1277,0.1335,0.1378,0.1414,0.108,0.1079,0.1283,0.1283,0.1283,0.1283,0.1283,0.1282,-0.0919,-0.0993,-0.1034,-0.1134,-0.1182,-0.1222,-0.1229,-0.1182,-0.1071,-0.0797,-0.0509,-0.027,0.0302,0.11,0.1555,0.1598,0.1738,0.1732,0.181,0.1574,0.1543,0.1512,0.1524,0.1818,0.1818,0.2135,0.2138,0.2141]}],[{"header":{"parameterUnit":"m.s-1","parameterCategory":2,"la1":30.2991,"la2":30.254,"lo1":-89.0895,"lo2":-89.0444,"dy":0.0017,"dx":0.0017,"nx":28,"ny":28,"refTime":"2025-08-09T21:00:00:Z","depth":"2","parameterNumber":2,"parameterNumberName":"U-component_of_CURRENTS"},"data":[0,0,0,0,0,0,0,0,0,0,0,0,0,0,0,0,0,0,0,0,0,0,0,0,0,0,0,0,0,0,0,0,0,0,0,0,0,0,0,0,0,0,0,0,0,0,0,0,0,0,0,0,0,0,0,0,0,0,-0.2039,-0.204,0,-0.2062,-0.2062,-0.2062,-0.204,-0.2039,-0.2039,-0.2038,-0.2015,-0.2015,-0.2015,0,0,0,0,0,0,0,0,0,0,0,0,0,-0.1976,-0.1977,-0.2039,-0.204,-0.204,-0.2062,-0.2062,-0.2062,-0.204,-0.2039,-0.2038,-0.2038,-0.2015,-0.2015,-0.2015,0,0,0,0,0,0,0,0,0,0,0,0,0,-0.1999,-0.1977,-0.2039,-0.2033,-0.2033,-0.2062,-0.2062,-0.2062,-0.204,-0.2039,-0.2038,-0.2037,-0.2015,-0.2015,-0.2015,-0.2036,0,0,-0.2015,-0.2015,0,0,0,0,0,0,0,0,-0.1998,-0.2001,-0.2034,-0.2034,-0.2034,-0.2049,-0.2031,-0.2052,-0.204,-0.2035,-0.2038,-0.2037,-0.2024,-0.2023,-0.2027,-0.2034,-0.2033,-0.2015,-0.2015,-0.2015,-0.2015,0,0,0,0,0,0,0,-0.1996,-0.2,-0.2046,-0.2034,-0.2034,-0.2029,-0.2031,-0.2035,-0.2033,-0.2036,-0.2035,-0.2041,-0.2023,-0.2028,-0.2027,-0.2033,-0.2015,-0.2015,-0.2015,-0.2015,-0.2061,-0.2062,0,0,0,0,0,0,-0.1999,-0.1999,-0.2045,-0.2047,-0.2015,-0.2031,-0.2034,-0.2043,-0.2034,-0.2032,-0.2042,-0.204,-0.2028,-0.2027,-0.2026,-0.2059,-0.2015,-0.2015,-0.2015,-0.206,-0.2061,-0.2063,0,0,0,0,0,0,-0.1998,-0.2003,-0.2044,-0.2025,-0.203,-0.2034,-0.2045,-0.2044,-0.2047,-0.2039,-0.2036,-0.2045,-0.2027,-0.2026,-0.2035,-0.2057,-0.2015,-0.2015,-0.2058,-0.206,-0.2062,-0.2119,0,0,0,0,0,0,-0.1996,-0.2003,-0.2008,-0.2025,-0.2031,-0.2066,-0.2046,-0.2046,-0.2054,-0.2051,-0.2041,-0.2038,-0.2026,-0.2035,-0.2035,-0.2057,-0.2015,-0.2057,-0.2059,-0.2061,-0.2116,-0.2123,-0.2129,0,0,0,0,0,-0.1994,-0.2007,-0.2009,-0.2014,-0.204,-0.2067,-0.207,-0.2067,-0.2055,-0.2064,-0.2057,-0.2038,-0.2049,-0.2036,-0.2036,-0.2058,-0.2056,-0.2059,-0.2061,-0.2113,-0.2122,-0.2129,0,0,0,0,0,0,-0.1981,-0.2007,-0.2009,-0.2028,-0.2049,-0.2064,-0.207,-0.2072,-0.2075,-0.2069,-0.2054,-0.2052,-0.2068,-0.2057,-0.2043,-0.2078,-0.205,-0.2052,-0.2089,-0.2097,-0.2103,-0.21,-0.2015,0,0,0,0,0,-0.1984,-0.1996,-0.2024,-0.2038,-0.2049,-0.2061,-0.207,-0.2074,-0.2081,-0.2081,-0.2077,-0.2074,-0.2082,-0.2083,-0.2085,-0.2106,-0.2091,-0.212,-0.2126,-0.2132,-0.213,-0.2137,-0.2144,-0.2072,-0.2071,-0.2071,0,0,-0.1981,-0.1997,-0.2004,-0.2036,-0.2047,-0.2076,-0.2063,-0.2083,-0.2106,-0.2079,-0.21,-0.2096,-0.2092,-0.2115,-0.2121,-0.2106,-0.2146,-0.2135,-0.214,-0.2135,-0.2141,-0.2148,-0.2154,-0.2073,-0.2073,-0.2073,0,0,-0.1989,-0.2,-0.2017,-0.2041,-0.2068,-0.2083,-0.2092,-0.2115,-0.2122,-0.2148,-0.2135,-0.2146,-0.2155,-0.2161,-0.2164,-0.2209,-0.218,-0.2209,-0.2239,-0.2248,-0.2253,-0.2258,-0.225,-0.2254,-0.2212,-0.2212,-0.2212,0,-0.1984,-0.2012,-0.2026,-0.2055,-0.2077,-0.2089,-0.212,-0.2139,-0.2161,-0.2173,-0.216,-0.2185,-0.218,-0.2212,-0.2225,-0.2224,-0.2214,-0.221,-0.2256,-0.226,-0.2264,-0.2255,-0.2258,-0.2215,-0.2215,-0.2215,-0.2215,0,-0.2009,-0.2036,-0.2049,-0.2091,-0.2117,-0.2144,-0.2179,-0.2201,-0.221,-0.2226,-0.2256,-0.2254,-0.2264,-0.2272,-0.2261,-0.2293,-0.2272,-0.2263,-0.2234,-0.2275,-0.2262,-0.2265,-0.222,-0.2219,-0.2218,-0.2217,0,0,-0.1984,-0.2054,-0.2057,-0.2084,-0.2138,-0.2161,-0.2209,-0.2254,-0.2279,-0.23,-0.233,-0.2349,-0.2339,-0.2341,-0.2333,-0.234,-0.2361,-0.2313,-0.2312,-0.2302,-0.2366,-0.2291,-0.2286,-0.2358,-0.2359,-0.2359,-0.2346,0,-0.1997,-0.2054,-0.2089,-0.2143,-0.2175,-0.2213,-0.2257,-0.2298,-0.2325,-0.2357,-0.2368,-0.2388,-0.2369,-0.2371,-0.238,-0.2365,-0.237,-0.2365,-0.233,-0.2329,-0.2255,-0.2288,-0.2107,-0.2076,-0.2348,-0.2349,-0.2349,0,-0.2004,-0.2044,-0.2099,-0.217,-0.2188,-0.2223,-0.2285,-0.2327,-0.2382,-0.2402,-0.2428,-0.2431,-0.2451,-0.2424,-0.2424,-0.2419,-0.2396,-0.2382,-0.2381,-0.229,-0.2259,-0.2079,-0.2069,-0.2353,-0.2352,-0.2352,-0.2352,0,-0.1967,-0.2047,-0.2087,-0.2113,-0.2198,-0.2227,-0.2268,-0.2332,-0.2363,-0.2422,-0.244,-0.2471,-0.247,-0.2465,-0.2432,-0.243,-0.242,-0.2415,-0.2327,-0.2321,-0.2149,-0.2127,-0.2413,-0.2413,-0.2413,-0.2413,-0.2413,0,-0.1961,-0.1992,-0.2071,-0.2094,-0.2134,-0.2206,-0.2249,-0.2298,-0.2364,-0.2391,-0.2446,-0.2459,-0.2478,-0.2472,-0.2449,-0.2387,-0.2432,-0.2332,-0.2316,-0.2164,-0.2144,-0.2368,-0.2363,-0.2413,-0.2413,-0.2413,-0.2413,0,-0.1907,-0.1967,-0.2009,-0.2093,-0.2115,-0.2138,-0.2218,-0.2247,-0.2325,-0.236,-0.2377,-0.2444,-0.2437,-0.2442,-0.2427,-0.2387,-0.2352,-0.2318,-0.2131,-0.2093,-0.2247,-0.2245,-0.2229,-0.2226,-0.2224,-0.2222,-0.222,0,-0.1883,-0.1899,-0.1974,-0.1988,-0.2021,-0.207,-0.2098,-0.22,-0.2231,-0.2334,-0.2337,-0.2373,-0.2357,-0.2323,-0.2269,-0.2216,-0.2283,-0.2021,-0.1988,-0.2243,-0.223,-0.2231,-0.2233,-0.1784,-0.1779,-0.1775,-0.1771,0,-0.1818,-0.1841,-0.187,-0.1897,-0.1925,-0.1962,-0.2015,-0.2037,-0.2148,-0.218,-0.2216,-0.2221,-0.2209,-0.2077,-0.2025,-0.1972,-0.202,-0.1935,-0.2246,-0.1862,-0.1824,-0.181,-0.1826,-0.1735,-0.1738,-0.1741,-0.1743,-0.1744,-0.1745,-0.1739,-0.1769,-0.1782,-0.1813,-0.1827,-0.1814,-0.188,-0.1903,-0.1925,-0.2022,-0.197,-0.197,-0.1797,-0.1716,-0.1658,-0.1797,-0.1711,-0.1724,-0.1741,-0.1695,-0.1655,-0.1525,-0.1528,-0.153,-0.1531,-0.1533,0,-0.1641,-0.1645,-0.1651,-0.1662,-0.1639,-0.1701,-0.1728,-0.1689,-0.1661,-0.1714,-0.1712,-0.1545,-0.1466,-0.148,-0.1336,-0.1313,-0.13,-0.1255,-0.1236,-0.1272,-0.1305,-0.1238,-0.0946,-0.0944,-0.0943,-0.0941,0,0,-0.1588,-0.1551,-0.1551,-0.1476,-0.1479,-0.1409,-0.1392,-0.1355,-0.1356,-0.1293,-0.1269,-0.1379,-0.1426,-0.1183,-0.1129,-0.1017,-0.1132,-0.0963,-0.1431,-0.1443,-0.1474,-0.1561,-0.1498,0,0,0,0,0]},{"header":{"parameterUnit":"m.s-1","parameterCategory":2,"la1":30.2991,"la2":30.254,"lo1":-89.0895,"lo2":-89.0444,"dy":0.0017,"dx":0.0017,"nx":28,"ny":28,"refTime":"2025-08-09T21:00:00:Z","depth":"2","parameterNumber":3,"parameterNumberName":"V-component_of_CURRENTS"},"data":[0,0,0,0,0,0,0,0,0,0,0,0,0,0,0,0,0,0,0,0,0,0,0,0,0,0,0,0,0,0,0,0,0,0,0,0,0,0,0,0,0,0,0,0,0,0,0,0,0,0,0,0,0,0,0,0,0,0,-0.0148,-0.0148,0,-0.0076,-0.0076,-0.0075,-0.0025,-0.0025,-0.0025,-0.0024,0.0071,0.0073,0.0075,0,0,0,0,0,0,0,0,0,0,0,0,0,-0.0203,-0.0203,-0.0148,-0.0148,-0.0147,-0.0077,-0.0075,-0.0074,-0.0025,-0.0025,-0.0025,-0.0024,0.007,0.0073,0.0076,0,0,0,0,0,0,0,0,0,0,0,0,0,-0.0159,-0.0203,-0.0148,-0.0115,-0.0111,-0.0077,-0.0075,-0.0074,-0.0025,-0.0025,-0.0024,-0.0024,0.0069,0.0073,0.0076,0.0089,0,0,0.0086,0.0088,0,0,0,0,0,0,0,0,-0.0162,-0.0157,-0.012,-0.0117,-0.0113,-0.006,-0.006,-0.0019,-0.0025,-0.0057,-0.0024,-0.0024,0.0028,0.0035,0.0049,0.0093,0.0097,0.0087,0.0089,0.009,0.0091,0,0,0,0,0,0,0,-0.0165,-0.016,-0.0119,-0.012,-0.0115,-0.0089,-0.0083,-0.0052,-0.0016,-0.0054,-0.005,-0.0044,0.0031,0.0045,0.0051,0.0099,0.0087,0.009,0.0092,0.0093,0.0167,0.0167,0,0,0,0,0,0,-0.0179,-0.0163,-0.0121,-0.0117,-0.0138,-0.0089,-0.0082,-0.0077,-0.0017,-0.0008,-0.0045,-0.0042,0.0039,0.0047,0.0055,0.0074,0.009,0.0093,0.0095,0.0167,0.0167,0.0167,0,0,0,0,0,0,-0.018,-0.0176,-0.0124,-0.0139,-0.0131,-0.0089,-0.0083,-0.0075,-0.0061,-0.001,-0.0,-0.0039,0.004,0.005,0.0082,0.0078,0.0095,0.0098,0.0168,0.0167,0.0167,0.0113,0,0,0,0,0,0,-0.0182,-0.0177,-0.018,-0.014,-0.013,-0.0111,-0.0084,-0.0074,-0.0059,-0.0055,-0.0002,0.0007,0.0041,0.0076,0.0085,0.0083,0.0101,0.0168,0.0167,0.0167,0.0115,0.0111,0.0107,0,0,0,0,0,-0.0184,-0.0192,-0.018,-0.0175,-0.0136,-0.0112,-0.0105,-0.0072,-0.0059,-0.0057,-0.0019,0.0006,0.0082,0.0079,0.0089,0.0088,0.0168,0.0168,0.0167,0.0116,0.0111,0.0107,0,0,0,0,0,0,-0.0218,-0.0187,-0.0173,-0.0171,-0.0147,-0.0104,-0.0101,-0.0078,-0.0047,-0.0043,0.0006,0.0018,0.0043,0.0073,0.0069,0.011,0.0128,0.013,0.0086,0.0082,0.0078,0.0064,0.0104,0,0,0,0,0,-0.0228,-0.0226,-0.0191,-0.019,-0.0181,-0.0142,-0.0129,-0.0108,-0.0074,-0.006,-0.0023,0.0017,0.005,0.0071,0.0103,0.0126,0.0161,0.0132,0.0129,0.0125,0.0121,0.0171,0.0172,0.0167,0.0167,0.0167,0,0,-0.0241,-0.0224,-0.0223,-0.0198,-0.0176,-0.017,-0.0133,-0.0119,-0.0111,-0.0055,-0.0034,0.0003,0.0053,0.0078,0.0092,0.0104,0.0145,0.0125,0.0122,0.0119,0.0171,0.0172,0.0172,0.0167,0.0167,0.0167,0,0,-0.0271,-0.0252,-0.0262,-0.0247,-0.0221,-0.0195,-0.0195,-0.0155,-0.0134,-0.0109,-0.0067,-0.0031,0.0017,0.0056,0.0081,0.0077,0.0121,0.0085,0.006,0.0108,0.0109,0.011,0.0152,0.0157,0.0087,0.0087,0.0087,0,-0.0289,-0.0296,-0.0262,-0.0268,-0.0261,-0.0211,-0.0221,-0.0191,-0.0146,-0.0128,-0.0112,-0.0032,0.0008,0.0049,0.0047,0.0069,0.01,0.0071,0.0103,0.0105,0.0107,0.015,0.0156,0.0084,0.0084,0.0085,0.0085,0,-0.0325,-0.0331,-0.0336,-0.0327,-0.0314,-0.0313,-0.0271,-0.0251,-0.022,-0.0184,-0.014,-0.008,-0.003,-0.0012,0.0017,0.0051,0.0069,0.0089,0.0112,0.0104,0.015,0.0157,0.008,0.0081,0.0082,0.0083,0,0,-0.0364,-0.0364,-0.0366,-0.0377,-0.0346,-0.0341,-0.0323,-0.0291,-0.0277,-0.0223,-0.0198,-0.0134,-0.0094,-0.0063,-0.0015,0.0028,0.007,0.0058,0.0062,0.0094,0.0172,0.0201,0.0213,0.0095,0.0096,0.0097,0.0197,0,-0.0403,-0.044,-0.0419,-0.0445,-0.046,-0.0411,-0.04,-0.0362,-0.0314,-0.0275,-0.0198,-0.0159,-0.0114,-0.009,-0.0039,0.0043,0.0088,0.004,0.0179,0.0183,0.0206,0.0222,0.019,0.0278,0.0205,0.0206,0.0207,0,-0.0445,-0.0465,-0.0505,-0.0512,-0.0512,-0.0513,-0.0483,-0.0465,-0.039,-0.0353,-0.0287,-0.0223,-0.0145,-0.0111,0.003,-0.0003,0.0075,0.0139,0.0145,0.0196,0.0227,0.0275,0.0295,0.0221,0.022,0.0219,0.0218,0,-0.0499,-0.0522,-0.056,-0.0562,-0.0558,-0.056,-0.0548,-0.0491,-0.0475,-0.0397,-0.0371,-0.0265,-0.021,-0.0098,0.0044,0.0036,0.0199,0.0209,0.031,0.0313,0.0325,0.0327,0.0302,0.0302,0.0302,0.0302,0.0301,0,-0.0552,-0.058,-0.0591,-0.0613,-0.0649,-0.062,-0.0631,-0.0597,-0.0545,-0.0526,-0.0416,-0.0368,-0.0205,-0.0086,0.0035,0.0204,0.0199,0.031,0.0345,0.0305,0.0304,0.0285,0.0282,0.0305,0.0305,0.0304,0.0303,0,-0.0605,-0.0612,-0.0658,-0.0673,-0.068,-0.0704,-0.0699,-0.0698,-0.0639,-0.0606,-0.0585,-0.044,-0.0278,-0.0106,0.0087,0.0192,0.0348,0.0405,0.0346,0.0372,0.0428,0.0421,0.0524,0.0526,0.0528,0.0529,0.053,0,-0.0636,-0.0667,-0.0711,-0.0743,-0.0753,-0.078,-0.0795,-0.0754,-0.0744,-0.0645,-0.0631,-0.047,-0.0338,-0.0034,0.0176,0.0402,0.0401,0.0494,0.0475,0.043,0.0453,0.0443,0.0433,0.047,0.047,0.0471,0.0471,0,-0.0691,-0.0705,-0.0742,-0.0813,-0.0847,-0.088,-0.0892,-0.09,-0.084,-0.0788,-0.0681,-0.0567,-0.027,-0.0017,0.0274,0.04,0.0456,0.0511,0.0494,0.0415,0.0386,0.0406,0.0397,0.0475,0.0475,0.0475,0.0474,0.0474,-0.0722,-0.0764,-0.0815,-0.0876,-0.0922,-0.0963,-0.0982,-0.0969,-0.0943,-0.0844,-0.073,-0.0531,-0.0288,0.0132,0.0336,0.0525,0.0524,0.0566,0.0562,0.0557,0.0529,0.0505,0.0611,0.0611,0.0612,0.0612,0.0612,0,-0.0756,-0.0804,-0.0872,-0.0942,-0.0997,-0.1005,-0.103,-0.1017,-0.0978,-0.0853,-0.072,-0.0442,-0.0149,0.0108,0.0409,0.0588,0.0566,0.0611,0.0544,0.054,0.0536,0.0504,0.058,0.0581,0.0581,0.0581,0,0,-0.0775,-0.0844,-0.0882,-0.0981,-0.103,-0.1075,-0.1085,-0.1044,-0.0953,-0.082,-0.0666,-0.0451,-0.0137,0.0065,0.029,0.0446,0.0445,0.0458,0.0466,0.0357,0.0351,0.0495,0.0439,0,0,0,0,0]}],[{"header":{"parameterUnit":"m.s-1","parameterCategory":2,"la1":30.2991,"la2":30.254,"lo1":-89.0895,"lo2":-89.0444,"dy":0.0017,"dx":0.0017,"nx":28,"ny":28,"refTime":"2025-08-09T21:00:00:Z","depth":"4","parameterNumber":2,"parameterNumberName":"U-component_of_CURRENTS"},"data":[0,0,0,0,0,0,0,0,0,0,0,0,0,0,0,0,0,0,0,0,0,0,0,0,0,0,0,0,0,0,0,0,0,0,0,0,0,0,0,0,0,0,0,0,0,0,0,0,0,0,0,0,0,0,0,0,0,0,-0.1458,-0.1459,0,-0.1512,-0.1513,-0.1513,-0.1543,-0.1543,-0.1543,-0.1543,-0.1592,-0.1593,-0.1594,0,0,0,0,0,0,0,0,0,0,0,0,0,-0.1381,-0.1382,-0.1458,-0.1459,-0.146,-0.1512,-0.1513,-0.1513,-0.1543,-0.1543,-0.1543,-0.1543,-0.1591,-0.1593,-0.1594,0,0,0,0,0,0,0,0,0,0,0,0,0,-0.1421,-0.1382,-0.1458,-0.1482,-0.1485,-0.1512,-0.1513,-0.1513,-0.1542,-0.1543,-0.1543,-0.1543,-0.1591,-0.1592,-0.1594,-0.1598,0,0,-0.1599,-0.16,0,0,0,0,0,0,0,0,-0.1419,-0.1423,-0.1478,-0.148,-0.1483,-0.1522,-0.1503,-0.1542,-0.1542,-0.1519,-0.1543,-0.1544,-0.1569,-0.1572,-0.158,-0.16,-0.1602,-0.1599,-0.16,-0.1601,-0.1601,0,0,0,0,0,0,0,-0.1416,-0.1421,-0.1478,-0.1478,-0.1482,-0.149,-0.1496,-0.151,-0.154,-0.1521,-0.1524,-0.1532,-0.157,-0.1578,-0.1581,-0.1603,-0.1599,-0.1601,-0.1602,-0.1602,-0.1693,-0.1694,0,0,0,0,0,0,-0.1412,-0.1419,-0.1476,-0.148,-0.1453,-0.1491,-0.1498,-0.1508,-0.154,-0.1546,-0.1532,-0.1533,-0.1575,-0.1579,-0.1583,-0.165,-0.1601,-0.1602,-0.1603,-0.1691,-0.1693,-0.1694,0,0,0,0,0,0,-0.141,-0.1417,-0.1474,-0.1451,-0.146,-0.1492,-0.1504,-0.1509,-0.1542,-0.1549,-0.1554,-0.1561,-0.1575,-0.158,-0.162,-0.165,-0.1603,-0.1605,-0.169,-0.1692,-0.1694,-0.1746,0,0,0,0,0,0,-0.1408,-0.1416,-0.1434,-0.1451,-0.1461,-0.1508,-0.1504,-0.151,-0.1545,-0.1548,-0.1575,-0.1579,-0.1576,-0.1618,-0.1622,-0.1652,-0.1606,-0.1688,-0.169,-0.1693,-0.1743,-0.175,-0.1756,0,0,0,0,0,-0.1405,-0.1424,-0.1434,-0.1442,-0.1481,-0.1509,-0.1515,-0.1538,-0.1547,-0.1567,-0.1587,-0.1579,-0.1638,-0.1621,-0.1625,-0.1656,-0.1686,-0.169,-0.1693,-0.174,-0.1749,-0.1756,0,0,0,0,0,0,-0.1403,-0.143,-0.1441,-0.147,-0.1497,-0.1515,-0.1539,-0.1553,-0.1585,-0.1595,-0.1598,-0.1604,-0.1648,-0.1647,-0.1628,-0.169,-0.166,-0.1665,-0.1695,-0.1703,-0.171,-0.17,-0.1607,0,0,0,0,0,-0.141,-0.1432,-0.1458,-0.1484,-0.1499,-0.1524,-0.1544,-0.1561,-0.1585,-0.1601,-0.162,-0.1641,-0.1661,-0.1678,-0.1694,-0.173,-0.1715,-0.1753,-0.1759,-0.1765,-0.1761,-0.1767,-0.1774,-0.1705,-0.1705,-0.1705,0,0,-0.1417,-0.1435,-0.145,-0.1486,-0.1508,-0.1538,-0.1537,-0.1575,-0.1606,-0.16,-0.1655,-0.1667,-0.1676,-0.1716,-0.1736,-0.1721,-0.1779,-0.1769,-0.1774,-0.1766,-0.1771,-0.1778,-0.1784,-0.1707,-0.1707,-0.1706,0,0,-0.1434,-0.146,-0.1483,-0.1509,-0.1549,-0.1565,-0.1582,-0.1618,-0.1643,-0.1692,-0.1694,-0.1725,-0.1763,-0.1772,-0.178,-0.1834,-0.1813,-0.1845,-0.1874,-0.1881,-0.1887,-0.1891,-0.1885,-0.1889,-0.185,-0.185,-0.185,0,-0.1444,-0.1474,-0.1495,-0.1525,-0.1552,-0.158,-0.1614,-0.1643,-0.1691,-0.1713,-0.1719,-0.1776,-0.1787,-0.1823,-0.1842,-0.1848,-0.1843,-0.1842,-0.1889,-0.1893,-0.1896,-0.1889,-0.1893,-0.1853,-0.1852,-0.1852,-0.1852,0,-0.1469,-0.1506,-0.1524,-0.157,-0.1602,-0.1637,-0.1676,-0.1716,-0.175,-0.1774,-0.1828,-0.1843,-0.1872,-0.1887,-0.1882,-0.1919,-0.1904,-0.1895,-0.1865,-0.1906,-0.1897,-0.1899,-0.1857,-0.1856,-0.1855,-0.1854,0,0,-0.1455,-0.1528,-0.1537,-0.1567,-0.163,-0.1654,-0.1714,-0.1765,-0.1802,-0.185,-0.1893,-0.1931,-0.1937,-0.1945,-0.1947,-0.1957,-0.1982,-0.1941,-0.194,-0.1928,-0.1992,-0.1858,-0.1847,-0.1983,-0.1983,-0.1984,-0.1975,0,-0.1471,-0.1528,-0.1565,-0.1628,-0.1659,-0.1709,-0.1758,-0.181,-0.1854,-0.1904,-0.1929,-0.1969,-0.196,-0.1978,-0.1988,-0.1985,-0.199,-0.1984,-0.1958,-0.1957,-0.1828,-0.1846,-0.1986,-0.1977,-0.1977,-0.1978,-0.1978,0,-0.1475,-0.1515,-0.1578,-0.1654,-0.1674,-0.172,-0.1796,-0.1844,-0.1914,-0.1948,-0.1989,-0.2008,-0.2039,-0.2023,-0.2031,-0.2029,-0.2014,-0.2005,-0.2004,-0.1857,-0.1826,-0.1927,-0.1981,-0.1981,-0.1981,-0.1981,-0.198,0,-0.1435,-0.1521,-0.1571,-0.1599,-0.169,-0.1733,-0.1784,-0.186,-0.1897,-0.1976,-0.2004,-0.2045,-0.2063,-0.2062,-0.2042,-0.2045,-0.2034,-0.2036,-0.1899,-0.189,-0.199,-0.1986,-0.2034,-0.2034,-0.2034,-0.2034,-0.2034,0,-0.1418,-0.1461,-0.1562,-0.1588,-0.1645,-0.1721,-0.1784,-0.184,-0.1917,-0.1946,-0.2019,-0.203,-0.2073,-0.2071,-0.2054,-0.1968,-0.2043,-0.1895,-0.1875,-0.2014,-0.2012,-0.1992,-0.1987,-0.2034,-0.2034,-0.2034,-0.2034,0,-0.1357,-0.143,-0.1487,-0.1592,-0.1627,-0.1667,-0.1769,-0.1802,-0.1892,-0.1931,-0.1956,-0.2024,-0.2016,-0.2032,-0.2025,-0.1959,-0.1912,-0.1864,-0.2004,-0.1994,-0.1764,-0.1762,-0.1715,-0.171,-0.1706,-0.1702,-0.1699,0,-0.1328,-0.1354,-0.1466,-0.1495,-0.1546,-0.162,-0.1659,-0.1769,-0.1795,-0.1898,-0.1893,-0.1936,-0.1959,-0.1835,-0.1877,-0.1829,-0.1805,-0.1773,-0.1772,-0.1744,-0.173,-0.1735,-0.1739,-0.1693,-0.1692,-0.1691,-0.169,0,-0.1258,-0.1311,-0.1355,-0.1412,-0.1464,-0.1511,-0.1578,-0.1584,-0.1693,-0.1795,-0.1771,-0.1763,-0.1749,-0.1736,-0.1703,-0.1674,-0.1793,-0.173,-0.1739,-0.1737,-0.1717,-0.1708,-0.1717,-0.1675,-0.1677,-0.1679,-0.168,0,-0.12,-0.1208,-0.1268,-0.1302,-0.1363,-0.1371,-0.1429,-0.1451,-0.1492,-0.161,-0.1595,-0.1646,-0.1719,-0.1654,-0.1627,-0.1582,-0.1564,-0.1514,-0.1534,-0.155,-0.15,-0.145,-0.1299,0,0,0,0,0,-0.1131,-0.1123,-0.1148,-0.1179,-0.1233,-0.1264,-0.1352,-0.1413,-0.1521,-0.1454,-0.152,-0.1499,-0.1467,-0.1501,-0.1419,-0.1559,-0.1574,-0.1459,-0.1528,-0.1596,-0.1612,-0.1568,0,0,0,0,0,0,-0.1084,-0.1104,-0.1105,-0.1062,-0.1056,-0.1099,-0.1147,-0.1228,-0.1202,-0.1318,-0.1304,-0.1397,-0.1385,-0.1477,-0.1382,-0.1391,-0.1401,-0.1502,-0.1498,-0.1586,-0.1601,-0.1615,-0.1575,0,0,0,0,0]},{"header":{"parameterUnit":"m.s-1","parameterCategory":2,"la1":30.2991,"la2":30.254,"lo1":-89.0895,"lo2":-89.0444,"dy":0.0017,"dx":0.0017,"nx":28,"ny":28,"refTime":"2025-08-09T21:00:00:Z","depth":"4","parameterNumber":3,"parameterNumberName":"V-component_of_CURRENTS"},"data":[0,0,0,0,0,0,0,0,0,0,0,0,0,0,0,0,0,0,0,0,0,0,0,0,0,0,0,0,0,0,0,0,0,0,0,0,0,0,0,0,0,0,0,0,0,0,0,0,0,0,0,0,0,0,0,0,0,0,-0.0104,-0.0104,0,-0.0053,-0.0052,-0.0052,-0.0016,-0.0016,-0.0016,-0.0016,0.006,0.0062,0.0064,0,0,0,0,0,0,0,0,0,0,0,0,0,-0.0139,-0.0139,-0.0104,-0.0104,-0.0103,-0.0053,-0.0052,-0.0052,-0.0016,-0.0016,-0.0016,-0.0016,0.006,0.0062,0.0064,0,0,0,0,0,0,0,0,0,0,0,0,0,-0.0109,-0.0139,-0.0104,-0.008,-0.0078,-0.0053,-0.0052,-0.0051,-0.0016,-0.0016,-0.0016,-0.0016,0.0059,0.0062,0.0064,0.0077,0,0,0.0073,0.0074,0,0,0,0,0,0,0,0,-0.0111,-0.0107,-0.0084,-0.0082,-0.0079,-0.0042,-0.0037,-0.0008,-0.0017,-0.0039,-0.0016,-0.0016,0.0028,0.0033,0.0043,0.008,0.0083,0.0073,0.0075,0.0076,0.0077,0,0,0,0,0,0,0,-0.0113,-0.0109,-0.0083,-0.0084,-0.008,-0.0061,-0.0057,-0.0031,-0.0006,-0.0037,-0.0034,-0.003,0.003,0.004,0.0045,0.0084,0.0073,0.0076,0.0077,0.0079,0.0142,0.0142,0,0,0,0,0,0,-0.0123,-0.0112,-0.0084,-0.0081,-0.0096,-0.0061,-0.0056,-0.0053,-0.0007,-0.0,-0.0031,-0.0029,0.0035,0.0042,0.0048,0.0068,0.0076,0.0079,0.008,0.0142,0.0142,0.0142,0,0,0,0,0,0,-0.0124,-0.0121,-0.0087,-0.0096,-0.009,-0.0061,-0.0058,-0.0052,-0.0042,-0.0003,0.0005,-0.0027,0.0036,0.0044,0.007,0.0071,0.008,0.0083,0.0142,0.0142,0.0142,0.0106,0,0,0,0,0,0,-0.0125,-0.0122,-0.0126,-0.0097,-0.009,-0.0077,-0.0058,-0.0051,-0.0041,-0.0038,0.0003,0.001,0.0037,0.0066,0.0073,0.0075,0.0085,0.0142,0.0142,0.0142,0.0107,0.0105,0.0102,0,0,0,0,0,-0.0127,-0.0132,-0.0126,-0.0123,-0.0096,-0.0077,-0.0072,-0.0049,-0.0041,-0.0039,-0.001,0.0009,0.0071,0.0068,0.0077,0.0079,0.0142,0.0142,0.0142,0.0108,0.0105,0.0103,0,0,0,0,0,0,-0.0149,-0.0129,-0.0121,-0.0121,-0.0103,-0.0072,-0.0069,-0.0054,-0.0029,-0.0027,0.0011,0.002,0.0042,0.0065,0.0061,0.0098,0.0109,0.0111,0.008,0.0078,0.0076,0.0063,0.0087,0,0,0,0,0,-0.0157,-0.0157,-0.0133,-0.0133,-0.0127,-0.01,-0.009,-0.0075,-0.0049,-0.0039,-0.001,0.0021,0.0048,0.0066,0.0091,0.0113,0.0139,0.012,0.0118,0.0116,0.0111,0.0154,0.0155,0.0142,0.0142,0.0142,0,0,-0.0167,-0.0156,-0.0156,-0.0139,-0.0124,-0.0118,-0.0093,-0.0083,-0.0075,-0.0034,-0.0017,0.0012,0.0051,0.0074,0.0086,0.0095,0.0132,0.0116,0.0114,0.0111,0.0154,0.0156,0.0157,0.0142,0.0142,0.0142,0,0,-0.0186,-0.0177,-0.0183,-0.0172,-0.0155,-0.0136,-0.0136,-0.0107,-0.0091,-0.0071,-0.004,-0.001,0.0029,0.0061,0.0082,0.0083,0.0116,0.0089,0.0073,0.0115,0.0116,0.0118,0.0148,0.0153,0.0092,0.0092,0.0092,0,-0.02,-0.0204,-0.0182,-0.0185,-0.0181,-0.0147,-0.0153,-0.013,-0.0096,-0.0083,-0.0072,-0.0008,0.0024,0.0061,0.0061,0.0079,0.0102,0.008,0.0112,0.0114,0.0116,0.0147,0.0153,0.009,0.0091,0.0091,0.0091,0,-0.022,-0.0226,-0.023,-0.0223,-0.0214,-0.0214,-0.0183,-0.0169,-0.0147,-0.0121,-0.0086,-0.0037,0.0001,0.0018,0.0041,0.0073,0.0083,0.01,0.0117,0.0115,0.0148,0.0154,0.0088,0.0089,0.0089,0.0089,0,0,-0.0244,-0.0245,-0.0248,-0.0258,-0.0237,-0.0234,-0.0219,-0.0195,-0.0188,-0.0144,-0.0127,-0.007,-0.0042,-0.0017,0.0021,0.006,0.0097,0.0082,0.0085,0.0108,0.018,0.0165,0.0171,0.0119,0.012,0.0121,0.0195,0,-0.0269,-0.0294,-0.028,-0.0301,-0.0313,-0.0281,-0.0274,-0.0246,-0.0212,-0.0186,-0.0123,-0.0094,-0.0054,-0.0038,0.0008,0.0075,0.0112,0.0074,0.0181,0.0184,0.0168,0.0177,0.0124,0.02,0.0201,0.0203,0.0203,0,-0.0292,-0.0309,-0.034,-0.0352,-0.0354,-0.0358,-0.0343,-0.033,-0.0276,-0.025,-0.0198,-0.0149,-0.0081,-0.0054,0.0067,0.004,0.0102,0.0154,0.0159,0.0161,0.0181,0.0204,0.0215,0.0215,0.0214,0.0213,0.0212,0,-0.0329,-0.035,-0.0381,-0.0385,-0.0388,-0.0396,-0.0392,-0.0354,-0.0346,-0.0289,-0.0274,-0.0183,-0.014,-0.0044,0.0071,0.0069,0.0198,0.0213,0.0258,0.0258,0.0266,0.0263,0.029,0.029,0.0289,0.0289,0.0289,0,-0.0359,-0.0385,-0.0406,-0.0424,-0.0463,-0.0445,-0.0465,-0.0442,-0.041,-0.0402,-0.0314,-0.0282,-0.0137,-0.0042,0.006,0.018,0.0196,0.0255,0.0278,0.0248,0.0243,0.027,0.0267,0.0292,0.0291,0.0291,0.029,0,-0.0391,-0.0403,-0.0446,-0.0471,-0.0484,-0.0511,-0.0526,-0.0532,-0.0494,-0.0477,-0.0463,-0.0351,-0.0223,-0.0078,0.0083,0.0158,0.0277,0.0312,0.0262,0.0282,0.031,0.0304,0.0369,0.0369,0.0369,0.037,0.037,0,-0.0407,-0.0433,-0.0489,-0.0524,-0.054,-0.0577,-0.0599,-0.0579,-0.0577,-0.0517,-0.0508,-0.0391,-0.0301,-0.0078,0.0068,0.0264,0.0287,0.0341,0.0331,0.0303,0.032,0.0313,0.0307,0.037,0.037,0.037,0.037,0,-0.0439,-0.0462,-0.0498,-0.0573,-0.0615,-0.0656,-0.068,-0.0686,-0.0651,-0.0623,-0.0534,-0.0409,-0.0268,-0.0086,0.0066,0.0204,0.0304,0.0342,0.0343,0.0334,0.0305,0.0319,0.0313,0.037,0.037,0.037,0.037,0,-0.0459,-0.0495,-0.0548,-0.0609,-0.067,-0.071,-0.0721,-0.0705,-0.0694,-0.0616,-0.0591,-0.0425,-0.0324,-0.0118,0.0022,0.0159,0.019,0.0224,0.0231,0.0233,0.017,0.0111,0.0136,0,0,0,0,0,-0.0473,-0.0515,-0.0579,-0.0644,-0.0705,-0.0734,-0.0761,-0.0757,-0.0728,-0.067,-0.0625,-0.0487,-0.0266,-0.0165,-0.003,0.0012,0.0201,0.0171,0.0241,0.0372,0.0372,0.032,0,0,0,0,0,0,-0.0483,-0.0545,-0.0578,-0.0656,-0.0703,-0.076,-0.0778,-0.076,-0.0714,-0.0667,-0.0542,-0.0469,-0.0248,-0.0338,-0.003,0.0011,0.0068,0.0282,0.0284,0.0372,0.0372,0.0371,0.0318,0,0,0,0,0]}]]